OBJECT B (49500 NORAD) Tracking and Keplerian Element Data

This shows tracking and keplerian element data for the satellite.

Feedback or suggestion? Click here.




ElementValue
Catalog49500
NameOBJECT B
Epoch Orbit29
Epoch Day330.32478186
Epoch Year2021
RAAN260.3589
Inclination51.6299
Eccentricity0.0002175
Argument of Perigee132.0357
Mean Anonmoly314.7085
Mean Motion16.46868278
Decay Rate0.10847501
L11 49500U 21111B 21330.32478186 .10847501 12566-4 22952-3 0 9995
L22 49500 51.6299 260.3589 0002175 132.0357 314.7085 16.46868278 296

Live tracking and technical data element details for OBJECT B (NORAD 49500). OBJECT B can be tracked NOW for your location showing map with azimuth and elevation plus other details from your city location.

Track the satellite on the map from your city or location and see movement details for azimuth, elevation, latitude, longitude, range, height, and movement on the map or in text.







IsCatalogInMostPopularTable: catalog: 49500, numindb: 1
Update: records affected: 1



GetName: 49500 OBJECT B

Hit Count: updated at: Wed, 08 Dec 2021 15:17:45 GMT